EHI
0 0 0 0 0 0 0 0 0 0 0 0 0 0 0 0 0 0 0 0 0 0 0 0 0 0 0 0 0 0 0 0 0 0 0 0 0 0
0 0 0 0 0 0 0 0 0 0 0 0 0 0 0 0 0 0 0 0 0 0 0 0 0 0 0 0 0 0 0 0 0 0 0 0 0 0
0 0 0 0 0 0 0 0 0 0 0 0 0 0 0 0 0 0 0 0 0 0 0 0 0 0 0 0 0 0 0 0 0 0 0 0 0 0
0 0 0 0 0 0 0 0 0 0 0 0 0 0 0 0 0 0 0 0 0 0 0 0 0 0 0 0 0 0 0 0 0 0 0 0 0 0
0 0 0 0 0 0 0 0 0 0 0 0 0 0 0 0 0 0 0 0 0 0 0 0 0 0 0 0 0 0 0 0 0 0 0 0 0 0
0 0 0 0 0 0 0 0 0 0 0 0 0 0 0 0 0 0 0 0 0 0 0 0 0 0 0 0 0 0 0 0 0 0 0 0 0 0
0 0 0 0 0 0 0 0 0 0 0 0 0 0 0 0 0 0 0 0 0 0 0 0 0 0 0 0 0 0 0 0 0 0 0 0 0 0
0 0 0 0 0 0 0 0 0 0 0 0 0 0 0 0 0 0 0 0 0 0 0 0 0 0 0 0 0 0 0 0 0 0 0 0 0 0
0 0 0 0 0 0 0 0 0 0 0 0 0 0 0 0 0 0 0 0 0 0 0 0 0 0 0 0 0 0 0 0 0 0 0 0 0 0
0 0 0 0 0 0 0 0 0 0 0 0 0 0 0 0 0 0 0 0 0 0 0 0 0 0 0 0 0 0 0 0 0 0 0 0 0 0
0 0 0 0 0 0 0 0 0 0 0 0 0 0 0 0 0 0 0 0 0 0 0 0 0 0 0 0 0 0 0 0 0 0 0 0 0 0
0 0 0 0 0 0 0 0 0 0 0 0 0 0 0 0 0 0 0 0 0 0 0 0 0 0 0 0 0 0 0 0 0 0 0 0 0 0
0 0 0 0 0 0 0 0 0 0 0 0 0 0 0 0 0 0 0 0 0 0 0 0 0 0 0 0 0 0 0 0 0 0 0 0 0 0
0 0 0 0 0 0 0 0 0 0 0 0 0 0 0 0 0 0 0 0 0 0 0 0 0 0 0 0 0 0 0 0 0 0 0 0 0 0
0 0 0 0 0 0 0 0 0 0 0 0 0 0 0 0 0 0 0 0 0 0 0 0 0 0 0 0 0 0 0 0 0 0 0 0 0 0
0 0 0 0 0 0 0 0 0 0 0 0 0 0 0 0 0 0 0 0 0 0 0 0 0 0 0 0 0 0 0 0 0 0 0 0 0 0
0 0 0 0 0 0 0 0 0 0 0 0 0 0 0 0 0 0 0 0 0 0 0 0 0 0 0 0 0 0 0 0 0 0 0 0 0 0
0 0 0 0 0 0 0 0 0 0 0 0 0 0 0 0 0 0 0 0 0 0 0 0 0 0 0 0 0 0 0 0 0 0 0 0 0 0
0 0 0 0 0 0 0 0 0 0 0 0 0 0 0 0 0 0 0 0 0 0 0 0 0 0 0 0 0 0 0 0 0 0 0 0 0 0
0 0 0 0 0 0 0 0 0 0 0 0 0 0 0 0 0 0 0 0 0 0 0 0 0 0 0 0 0 0 0 0 0 0 0 0 0 0
0 0 0 0 0 0 0 0 0 0 0 0 0 0 0 0 0 0 0 0 0 0 0 0 0 0 0 0 0 0 0 0 0 0 0 0 0 0
0 0 0 0 0 0 0 0 0 0 0 0 0 0 0 0 0 0 0 0 0 0 0 0 0 0 0 0 0 0 0 0 0 0 0 0 0 0
0 0 0 0 0 0 0 0 0 0 0 0 0 0 0 0 0 0 0 0 0 0 0 0 0 0 0 0 0 0 0 0 0 0 0 0 0 0
Wind_Speed
2 2 2 2 2 2 2 3 3 2 3 3 1 1 1 2 3 3 3 4 4 3 3 3 4 5 5 5 5 5 5 6 6 7 7 8 8 9
1 2 2 2 2 2 2 2 3 3 3 2 2 1 1 2 3 3 3 4 5 4 4 3 4 5 5 6 6 6 6 6 6 7 7 8 8 9
1 1 2 2 1 1 1 1 2 2 2 2 1 1 1 2 1 1 2 2 2 4 4 4 4 4 5 5 6 6 6 6 6 7 7 7 7 8
2 2 2 2 2 2 1 1 1 1 2 2 1 1 1 1 2 1 1 1 1 3 4 5 5 5 5 5 6 6 6 6 6 7 7 7 7 6
1 1 2 1 2 2 2 1 1 1 1 1 1 0 0 0 1 0 0 0 1 2 3 4 5 5 5 6 6 7 7 7 7 7 7 7 7 7
1 1 2 2 2 2 1 1 1 1 1 1 1 0 0 0 1 1 0 1 1 1 1 2 4 5 6 7 7 8 9 9 8 8 7 7 7 7
2 2 2 2 2 2 1 1 1 1 1 1 1 1 1 1 1 1 1 1 1 1 1 1 1 2 3 5 7 8 9 9 9 9 9 8 7 7
2 3 2 2 3 2 2 2 2 2 2 2 1 2 2 2 1 1 1 1 2 1 1 2 2 2 3 3 6 9 9 10 10 9 9 9 8 8
2 2 2 2 3 2 2 2 2 2 3 3 3 3 3 3 3 2 2 2 3 2 2 2 2 3 3 5 8 10 10 10 11 10 10 10 10 9
1 1 1 2 2 2 1 2 2 2 2 2 3 4 3 3 4 4 3 2 2 1 2 2 2 2 3 3 7 10 11 11 11 11 11 11 10 10
2 1 0 1 3 3 2 2 2 3 2 1 3 3 4 4 4 2 2 1 1 2 2 2 2 1 1 2 4 8 10 10 11 11 11 11 11 9
2 2 1 1 2 2 1 1 2 3 2 2 2 3 3 4 5 5 4 3 2 2 2 3 2 1 1 2 2 2 4 7 10 11 11 11 11 6
1 2 2 3 3 2 1 2 3 3 2 2 2 2 2 2 3 3 4 4 3 3 3 3 2 2 2 2 2 2 3 3 3 5 9 12 11 9
2 2 3 5 5 5 3 3 4 3 1 1 2 2 2 2 3 3 4 5 5 5 4 4 3 3 3 1 2 2 2 3 4 4 4 6 9 12
2 5 6 7 5 4 5 6 3 1 1 2 3 3 3 3 2 2 2 2 3 4 4 5 4 3 3 3 3 2 2 3 4 4 4 5 5 4
2 4 6 6 4 4 5 4 2 2 3 3 3 3 2 2 2 2 2 1 1 3 4 5 6 5 4 4 4 4 4 4 3 4 4 4 4 5
2 2 2 3 4 3 3 3 3 2 3 3 3 3 3 3 3 2 2 2 2 3 3 3 3 4 5 4 3 4 4 4 4 4 3 4 5 6
1 1 3 3 4 4 4 4 3 3 4 3 3 3 3 3 3 2 2 3 3 4 4 3 2 1 1 3 6 5 4 4 4 4 4 4 5 5
1 3 3 4 4 4 4 4 4 4 4 3 4 4 3 3 3 3 3 2 3 4 4 3 2 3 3 4 5 7 6 4 3 3 4 5 5 6
3 4 5 5 4 4 4 4 4 4 3 3 3 3 3 3 3 4 3 3 3 3 3 3 3 4 5 5 4 5 8 6 4 4 4 3 4 5
4 5 5 5 5 5 4 4 4 4 4 3 3 4 4 3 4 4 4 5 4 3 4 5 6 6 3 1 2 4 4 7 8 6 4 3 3 3
5 5 5 5 5 5 5 4 4 4 4 4 4 4 4 4 4 5 4 4 4 4 5 5 4 2 2 3 5 5 5 4 6 9 9 8 5 5
5 5 5 5 5 4 4 4 5 4 4 4 4 3 3 3 4 4 4 4 4 4 4 4 3 2 3 4 4 4 5 5 3 3 4 8 11 12
Wind_Direction
259 252 249 249 242 235 219 196 192 234 263 267 273 265 209 189 188 184 186 197 201 205 201 194 197 204 204 201 195 182 173 176 177 176 176 179 182 182
257 255 264 262 261 253 238 224 202 198 236 251 244 245 215 200 190 183 199 197 205 208 211 208 199 198 201 200 188 177 174 175 177 178 178 181 179 178
289 276 278 274 274 274 255 236 224 198 226 267 265 247 192 181 173 170 185 195 213 214 213 213 210 203 200 196 189 181 181 181 180 179 176 175 176 179
297 297 295 296 287 269 259 248 238 221 200 246 279 282 243 193 168 171 187 197 207 221 218 216 212 208 203 198 193 187 186 186 185 184 182 182 181 180
284 289 296 309 289 273 257 250 250 247 194 188 245 268 308 170 123 128 154 272 231 214 216 220 218 211 208 205 202 199 195 193 191 191 193 193 189 187
317 300 298 290 277 275 259 244 238 228 177 166 191 207 235 197 129 161 245 280 264 247 227 216 216 215 214 212 211 207 201 198 196 195 196 195 194 192
326 317 300 306 294 271 253 222 202 201 187 182 188 182 208 184 195 190 200 267 290 242 219 241 210 221 224 220 218 213 206 201 200 199 198 198 200 200
314 314 309 323 334 327 291 240 212 203 200 199 203 205 225 219 196 188 179 187 276 245 165 247 194 226 234 224 218 210 207 205 205 205 204 207 210 212
295 303 320 344 336 336 340 325 305 268 217 194 199 219 216 212 189 201 203 201 227 228 156 247 225 231 235 229 217 212 210 210 211 211 211 213 215 218
300 282 304 330 340 346 359 357 331 320 270 217 211 223 223 211 197 204 208 218 268 249 165 210 232 231 240 229 222 215 215 215 216 217 217 217 218 221
337 353 26 342 343 4 22 358 338 326 321 244 222 225 223 217 197 170 184 177 249 258 192 186 223 244 269 252 235 220 218 218 220 220 221 221 221 222
343 345 350 340 334 5 19 337 313 302 313 318 298 275 256 243 220 203 193 186 195 239 215 177 196 163 290 277 237 216 217 224 224 224 224 225 221 214
322 315 304 313 320 318 303 254 257 274 295 291 284 285 279 259 238 217 201 190 192 225 210 171 182 178 187 261 275 228 209 216 216 227 229 229 223 206
261 277 287 299 302 299 294 279 286 294 287 302 293 283 276 264 251 237 220 214 215 222 210 176 184 186 178 211 261 258 231 218 211 225 227 231 229 221
263 271 286 299 304 299 287 291 295 275 268 275 270 264 250 245 255 273 270 248 252 246 228 202 197 193 181 198 221 229 242 247 217 219 224 221 221 209
296 296 304 310 309 292 294 294 270 238 231 246 256 260 260 253 244 231 242 256 277 286 260 220 207 198 208 218 211 231 222 224 229 220 219 233 232 218
307 323 334 329 326 318 307 293 282 270 251 248 253 264 264 255 253 231 216 213 221 250 273 276 228 211 214 205 216 235 237 239 234 219 207 235 248 234
258 299 301 297 292 291 292 291 280 263 254 247 248 249 252 252 255 251 222 215 230 242 245 251 253 306 322 262 217 223 238 240 241 222 201 215 253 251
241 268 273 275 274 274 273 271 272 266 255 244 245 248 249 249 243 248 241 231 236 242 245 235 212 193 222 261 267 218 208 233 231 228 219 211 231 247
242 257 267 271 270 271 271 269 272 274 262 252 250 251 247 245 245 244 241 237 241 244 254 246 224 212 212 227 246 255 219 209 213 227 237 235 246 261
263 260 259 261 264 264 265 265 264 263 260 252 250 251 248 244 249 248 241 244 244 243 247 252 249 239 226 196 260 270 259 226 212 210 213 220 246 262
258 261 263 260 258 259 263 267 270 269 267 259 255 252 247 241 245 248 240 238 239 240 248 259 267 251 206 220 244 254 265 273 246 236 227 209 198 216
253 256 260 263 261 259 258 259 261 264 263 264 266 262 253 246 247 247 246 243 240 246 250 257 259 243 236 232 242 253 261 269 271 270 262 242 231 236